Language: 


Des rapports , des résumés tant et plus, au choix de chacun....


Données Historiques de Météogheer
Journalier Rapport pour Janvier 25, 2018 Unitée:  Impériale    Métrique   Les deux
Suivant Jour »
Journalier Hebdomadaire Mensuel Annuel Sur mesure
  Max: Min: Moyenne:
Température: 50.7 °F 42.4 °F 46.8 °F
Point de rosée: 48.2 °F 42.8 °F 45.9 °F
Humidité: 98% 85% 95%
Vent: 10.1mph 0mph 4.3mph
Rafales: 13mph - -
Vent- - SSW
Pression: 29.9 in 29.8 in -
Pluie: 0.01 in    
Historical Graphs
 
 
Données tabulaires pour Janvier 25, 2018
Heure Température Point de rosée Pression Vent Vent Rafales Humidité Pluie Taux (Horaire) Conditions
00:01 46.2 °F 46.4 °F 29.9 in SW 8.5 mph 12.1 mph 98% 0 in
00:06 46.2 °F 46.4 °F 29.9 in SW 10.1 mph 12.1 mph 98% 0 in
00:11 46.2 °F 46.4 °F 29.9 in SW 8.1 mph 10.7 mph 98% 0 in
00:16 46.2 °F 46.4 °F 29.8 in SSW 8.7 mph 10.7 mph 98% 0 in
00:21 46.2 °F 46.4 °F 29.8 in SW 4.9 mph 10.3 mph 98% 0 in
00:26 46.2 °F 46.4 °F 29.8 in SSW 5.4 mph 10.3 mph 98% 0 in
00:31 46.2 °F 46.4 °F 29.9 in SSW 6.5 mph 10.3 mph 98% 0 in
00:36 46.2 °F 46.4 °F 29.9 in SW 7.2 mph 10.3 mph 98% 0 in
00:41 46.4 °F 46.4 °F 29.9 in SW 4.9 mph 10.5 mph 98% 0 in
00:46 46.2 °F 46.4 °F 29.8 in SW 5.4 mph 10.5 mph 98% 0 in
00:51 46.4 °F 46.4 °F 29.8 in WSW 7.4 mph 10.3 mph 98% 0 in
00:56 46.4 °F 46.4 °F 29.8 in SSW 7.6 mph 10.3 mph 98% 0 in
01:01 46.4 °F 46.4 °F 29.9 in SSW 7.4 mph 9.6 mph 98% 0 in
01:06 46.4 °F 46.4 °F 29.9 in SW 6 mph 10.1 mph 98% 0 in
01:11 46.4 °F 46.4 °F 29.9 in SSW 6.3 mph 10.1 mph 98% 0 in
01:16 46.4 °F 46.4 °F 29.9 in SW 7.6 mph 10.1 mph 98% 0 in
01:21 46.4 °F 46.4 °F 29.9 in SSW 5.6 mph 10.1 mph 98% 0 in
01:26 46.6 °F 46.4 °F 29.9 in SW 8.7 mph 10.7 mph 98% 0 in
01:31 46.6 °F 46.4 °F 29.9 in SSW 6.5 mph 13 mph 98% 0 in
01:36 46.6 °F 46.4 °F 29.9 in SSW 7.6 mph 13 mph 98% 0 in
01:41 46.6 °F 46.4 °F 29.9 in WSW 8.7 mph 10.5 mph 98% 0 in
01:46 46.6 °F 46.4 °F 29.9 in SW 6.3 mph 10.1 mph 98% 0 in
01:51 46.4 °F 46.4 °F 29.9 in WSW 6.5 mph 10.1 mph 98% 0 in
01:57 46.4 °F 46.4 °F 29.9 in SSW 6.5 mph 8.1 mph 98% 0 in
02:02 46.4 °F 46.4 °F 29.9 in SSW 4.9 mph 8.1 mph 98% 0 in
02:07 46.4 °F 46.4 °F 29.9 in SW 6.3 mph 8.1 mph 98% 0 in
02:12 46.6 °F 46.4 °F 29.9 in SW 5.8 mph 7.8 mph 98% 0 in
02:17 46.6 °F 46.4 °F 29.9 in SW 5.8 mph 10.1 mph 98% 0 in
02:22 46.8 °F 46.4 °F 29.9 in SSW 8.5 mph 10.1 mph 98% 0 in
02:27 46.8 °F 46.4 °F 29.9 in SSW 7.2 mph 9.6 mph 98% 0 in
02:32 46.8 °F 46.4 °F 29.9 in SW 6.3 mph 9.6 mph 98% 0 in
02:37 46.8 °F 46.4 °F 29.9 in SW 6 mph 9.6 mph 98% 0 in
02:42 46.6 °F 46.4 °F 29.9 in SW 6.3 mph 10.1 mph 98% 0 in
02:47 46.6 °F 46.4 °F 29.9 in SSW 6.9 mph 10.1 mph 98% 0 in
02:52 46.6 °F 46.4 °F 29.9 in SW 8.1 mph 10.7 mph 98% 0 in
02:57 46.6 °F 46.4 °F 29.9 in SSW 7.6 mph 10.7 mph 98% 0 in
03:02 46.4 °F 46.4 °F 29.9 in WSW 8.1 mph 8.5 mph 98% 0 in
03:07 46.4 °F 46.4 °F 29.9 in WSW 5.6 mph 9.8 mph 98% 0 in
03:12 46.2 °F 46.4 °F 29.9 in SW 5.8 mph 9.8 mph 98% 0 in
03:17 46.2 °F 46.4 °F 29.9 in SW 4.9 mph 8.5 mph 98% 0 in
03:22 46.2 °F 46.4 °F 29.9 in SW 5.4 mph 8.7 mph 98% 0 in
03:27 46 °F 46.4 °F 29.9 in SW 5.6 mph 8.7 mph 98% 0 in
03:32 46 °F 46.4 °F 29.9 in SSW 6.3 mph 7.8 mph 98% 0 in
03:37 46 °F 46.4 °F 29.9 in SSW 5.6 mph 8.7 mph 98% 0 in
03:42 46 °F 46.4 °F 29.9 in SSW 6 mph 9.8 mph 98% 0 in
03:47 46 °F 46.4 °F 29.9 in SSW 8.7 mph 10.3 mph 98% 0 in
03:52 46 °F 46.4 °F 29.9 in SW 8.5 mph 10.3 mph 98% 0 in
03:57 46 °F 46.4 °F 29.9 in WSW 7.4 mph 10.7 mph 98% 0 in
04:02 46 °F 46.4 °F 29.9 in SSW 8.5 mph 10.7 mph 98% 0 in
04:07 46 °F 46.4 °F 29.9 in SSW 5.8 mph 10.1 mph 98% 0 in
04:12 46 °F 46.4 °F 29.9 in SSW 6.9 mph 8.5 mph 98% 0 in
04:17 46 °F 46.4 °F 29.9 in SSW 8.5 mph 8.5 mph 98% 0 in
04:22 46 °F 46.4 °F 29.9 in SSW 3.4 mph 8.5 mph 98% 0 in
04:27 46 °F 46.4 °F 29.9 in SSW 6.3 mph 9.8 mph 98% 0 in
04:33 46.2 °F 46.4 °F 29.9 in SSW 7.4 mph 9.8 mph 98% 0 in
04:38 46.4 °F 46.4 °F 29.9 in SSW 5.4 mph 8.7 mph 98% 0.01 in
04:43 46.4 °F 46.4 °F 29.9 in SW 3.8 mph 8.5 mph 98% 0.01 in
04:48 46.2 °F 46.4 °F 29.9 in SSW 5.8 mph 7.6 mph 98% 0.01 in
04:53 46.2 °F 46.4 °F 29.9 in SSW 4.9 mph 6.5 mph 98% 0.01 in
04:58 46.2 °F 46.4 °F 29.9 in SSW 7.6 mph 8.7 mph 98% 0.01 in
05:03 46.2 °F 46.4 °F 29.8 in SSW 4.9 mph 8.7 mph 98% 0.01 in
05:08 46.2 °F 46.4 °F 29.8 in SSW 5.4 mph 7.8 mph 98% 0.01 in
05:13 46.4 °F 46.4 °F 29.8 in SW 5.8 mph 7.4 mph 98% 0.01 in
05:18 46.2 °F 46.4 °F 29.9 in SSW 8.5 mph 8.5 mph 98% 0.01 in
05:23 46.2 °F 46.4 °F 29.9 in South 7.6 mph 9.8 mph 98% 0.01 in
05:28 46.2 °F 46.4 °F 29.9 in SSW 4.7 mph 9.8 mph 98% 0.01 in
05:33 46.2 °F 46.4 °F 29.9 in SW 4 mph 7.8 mph 98% 0.01 in
05:38 46.2 °F 46.4 °F 29.9 in SSW 5.4 mph 7.2 mph 98% 0 in
05:43 46.4 °F 46.4 °F 29.9 in SW 6 mph 7.2 mph 98% 0 in
05:48 46.4 °F 46.4 °F 29.9 in SSW 3.4 mph 6.5 mph 98% 0 in
05:53 46.4 °F 46.4 °F 29.9 in SSW 5.4 mph 6.5 mph 98% 0 in
05:58 46.4 °F 46.4 °F 29.9 in SW 6.3 mph 6.3 mph 98% 0 in
06:03 46.4 °F 46.4 °F 29.9 in SW 6 mph 7.4 mph 98% 0 in
06:08 46.4 °F 46.4 °F 29.9 in SSW 5.4 mph 7.6 mph 98% 0 in
06:13 46.4 °F 46.4 °F 29.9 in SSW 3.6 mph 7.6 mph 98% 0 in
06:18 46.4 °F 46.4 °F 29.9 in SSW 7.8 mph 8.1 mph 98% 0 in
06:23 46.4 °F 46.4 °F 29.9 in SW 5.4 mph 8.7 mph 98% 0 in
06:28 46.4 °F 46.4 °F 29.9 in SSW 6.5 mph 8.7 mph 98% 0 in
06:33 46.4 °F 46.4 °F 29.9 in SSW 6 mph 6.5 mph 98% 0 in
06:38 46.2 °F 46.4 °F 29.9 in SSW 7.4 mph 7.4 mph 98% 0 in
06:43 46.2 °F 46.4 °F 29.9 in SSW 4.3 mph 7.4 mph 98% 0 in
06:48 46 °F 46.4 °F 29.9 in SSW 3.4 mph 7.4 mph 98% 0 in
06:53 46 °F 46.4 °F 29.9 in SSW 2.7 mph 5.8 mph 98% 0 in
06:58 46 °F 46.4 °F 29.9 in SSW 4.3 mph 6 mph 98% 0 in
07:04 46.2 °F 46.4 °F 29.9 in SSW 4 mph 6 mph 98% 0 in
07:09 46.2 °F 46.4 °F 29.9 in SSW 3.1 mph 6 mph 98% 0 in
07:14 46.2 °F 46.4 °F 29.9 in SSW 6.3 mph 6.3 mph 98% 0 in
07:19 46.4 °F 46.4 °F 29.9 in South 2.2 mph 6.3 mph 98% 0 in
07:24 46.4 °F 46.4 °F 29.9 in Calm   6.3 mph 98% 0 in
07:29 46.4 °F 46.4 °F 29.9 in South 3.1 mph 4.9 mph 98% 0 in
07:31 46.4 °F 46.4 °F 29.9 in Calm   4.9 mph 98% 0 in
07:36 46.2 °F 46.4 °F 29.9 in South 2.5 mph 4.3 mph 98% 0 in
07:41 46.2 °F 46.4 °F 29.9 in Calm   4.7 mph 98% 0 in
07:46 46 °F 46.4 °F 29.9 in South 2.2 mph 5.4 mph 98% 0 in
07:51 45.9 °F 46.4 °F 29.9 in SSW 4 mph 5.4 mph 98% 0 in
07:56 45.9 °F 46.4 °F 29.9 in SSW 4 mph 4.9 mph 98% 0 in
08:01 45.7 °F 46.4 °F 29.9 in Calm   4.9 mph 98% 0 in
08:06 45.7 °F 46.4 °F 29.9 in SSW 3.1 mph 7.8 mph 98% 0 in
08:11 45.5 °F 46.4 °F 29.9 in South 5.8 mph 7.8 mph 98% 0 in
08:17 45.5 °F 46.4 °F 29.9 in SSW 3.1 mph 7.4 mph 98% 0 in
08:22 45.5 °F 46.4 °F 29.9 in South 4.3 mph 7.4 mph 98% 0 in
08:27 45.3 °F 44.6 °F 29.9 in SSW 5.4 mph 7.4 mph 98% 0 in
08:32 45.3 °F 44.6 °F 29.8 in South 3.8 mph 7.4 mph 98% 0 in
08:37 45.3 °F 44.6 °F 29.8 in Calm   5.4 mph 98% 0 in
08:42 45.3 °F 44.6 °F 29.8 in Calm   5.4 mph 98% 0 in
08:47 45.3 °F 44.6 °F 29.9 in South 2.7 mph 5.4 mph 98% 0 in
08:52 45.3 °F 44.6 °F 29.9 in Calm   4.9 mph 98% 0 in
08:57 45.3 °F 44.6 °F 29.9 in SSW 5.8 mph 7.4 mph 98% 0 in
09:02 45.5 °F 46.4 °F 29.9 in South 5.6 mph 7.4 mph 98% 0 in
09:07 45.7 °F 46.4 °F 29.9 in SSW 5.4 mph 8.1 mph 98% 0 in
09:12 45.9 °F 46.4 °F 29.9 in SSW 3.4 mph 8.1 mph 98% 0 in
09:17 45.9 °F 46.4 °F 29.9 in SW 3.4 mph 8.1 mph 98% 0 in
09:22 46 °F 46.4 °F 29.9 in SSW 4.9 mph 10.3 mph 98% 0 in
09:27 46.2 °F 46.4 °F 29.9 in SSW 6 mph 10.3 mph 98% 0 in
09:32 46.2 °F 46.4 °F 29.9 in SSW 5.6 mph 8.7 mph 98% 0 in
09:37 46.2 °F 46.4 °F 29.9 in SSW 4 mph 8.5 mph 98% 0 in
09:42 46.2 °F 46.4 °F 29.9 in SSW 5.6 mph 8.5 mph 98% 0 in
09:47 46.4 °F 46.4 °F 29.8 in SSW 6.5 mph 8.7 mph 98% 0 in
09:52 46.4 °F 46.4 °F 29.8 in South 4.3 mph 8.7 mph 98% 0 in
09:57 46.6 °F 46.4 °F 29.8 in SSW 5.4 mph 7.8 mph 98% 0 in
10:02 46.8 °F 46.4 °F 29.9 in SSW 5.6 mph 10.3 mph 98% 0 in
10:07 46.8 °F 46.4 °F 29.9 in SW 7.2 mph 10.3 mph 98% 0 in
10:12 46.9 °F 48.2 °F 29.9 in SW 6.5 mph 8.7 mph 98% 0 in
10:17 47.1 °F 48.2 °F 29.9 in SW 4 mph 8.7 mph 98% 0 in
10:22 47.1 °F 48.2 °F 29.9 in SSW 8.9 mph 8.9 mph 98% 0 in
10:27 47.3 °F 48.2 °F 29.9 in SSW 5.4 mph 8.9 mph 98% 0 in
10:32 47.3 °F 48.2 °F 29.8 in SW 6.3 mph 8.1 mph 98% 0 in
10:37 47.3 °F 48.2 °F 29.8 in SSW 5.8 mph 8.1 mph 98% 0 in
10:42 47.5 °F 48.2 °F 29.8 in SSW 5.4 mph 6.3 mph 98% 0 in
10:47 47.5 °F 48.2 °F 29.8 in South 3.8 mph 6.3 mph 98% 0 in
10:53 47.7 °F 48.2 °F 29.8 in SSW 5.6 mph 6.3 mph 98% 0 in
10:58 47.7 °F 48.2 °F 29.8 in SSW 4.3 mph 6.7 mph 98% 0 in
11:03 47.8 °F 48.2 °F 29.9 in SW 4 mph 6.7 mph 98% 0 in
11:08 47.8 °F 48.2 °F 29.9 in SSW 5.6 mph 7.4 mph 98% 0 in
11:13 48 °F 48.2 °F 29.9 in SSW 4.3 mph 8.1 mph 98% 0 in
11:18 48 °F 48.2 °F 29.8 in SW 5.6 mph 8.1 mph 98% 0 in
11:23 48.2 °F 48.2 °F 29.8 in SW 6.5 mph 8.5 mph 97% 0 in
11:28 48.2 °F 48.2 °F 29.8 in SSW 5.6 mph 8.5 mph 97% 0 in
11:33 48.4 °F 48.2 °F 29.9 in SSW 4 mph 8.1 mph 97% 0 in
11:38 48.6 °F 48.2 °F 29.9 in SSW 7.8 mph 8.1 mph 97% 0 in
11:43 48.7 °F 48.2 °F 29.8 in SSW 4.9 mph 8.5 mph 97% 0 in
11:48 48.7 °F 48.2 °F 29.8 in SSW 4 mph 8.5 mph 96% 0 in
11:53 48.7 °F 48.2 °F 29.8 in SW 8.5 mph 9.8 mph 96% 0 in
11:58 48.9 °F 48.2 °F 29.9 in WSW 5.4 mph 11.2 mph 96% 0 in
12:03 49.1 °F 48.2 °F 29.9 in SSW 6 mph 11.2 mph 95% 0 in
12:08 49.3 °F 48.2 °F 29.9 in SSW 6.5 mph 10.7 mph 95% 0 in
12:13 49.6 °F 48.2 °F 29.9 in SSW 5.4 mph 10.7 mph 95% 0 in
12:18 49.6 °F 48.2 °F 29.9 in SW 7.2 mph 8.7 mph 94% 0 in
12:24 49.6 °F 48.2 °F 29.9 in SW 7.6 mph 10.3 mph 94% 0 in
12:29 49.8 °F 48.2 °F 29.8 in SW 6 mph 10.3 mph 93% 0 in
12:34 49.8 °F 48.2 °F 29.8 in WSW 5.6 mph 9.8 mph 93% 0 in
12:39 49.8 °F 48.2 °F 29.8 in SSW 6.7 mph 11.4 mph 92% 0 in
12:44 50 °F 48.2 °F 29.9 in SSW 6 mph 11.4 mph 92% 0 in
12:49 50 °F 48.2 °F 29.9 in SSW 5.4 mph 10.1 mph 92% 0 in
12:54 50 °F 48.2 °F 29.9 in SSW 4.9 mph 10.1 mph 91% 0 in
12:59 50.2 °F 48.2 °F 29.8 in SW 5.4 mph 9.2 mph 91% 0 in
13:04 50.2 °F 48.2 °F 29.8 in SW 4 mph 8.7 mph 91% 0 in
13:09 50.4 °F 48.2 °F 29.8 in SW 7.6 mph 8.7 mph 90% 0 in
13:14 50.4 °F 48.2 °F 29.8 in SW 6 mph 10.3 mph 90% 0 in
13:19 50.4 °F 48.2 °F 29.8 in SW 6.5 mph 10.3 mph 90% 0 in
13:24 50.5 °F 48.2 °F 29.8 in SSW 7.8 mph 9.8 mph 89% 0 in
13:29 50.5 °F 48.2 °F 29.9 in SSW 6.9 mph 9.8 mph 89% 0 in
13:34 50.5 °F 48.2 °F 29.9 in WSW 6.5 mph 9.8 mph 88% 0 in
13:39 50.5 °F 48.2 °F 29.9 in SW 6.3 mph 10.1 mph 87% 0 in
13:44 50.4 °F 48.2 °F 29.8 in SW 9.6 mph 10.5 mph 87% 0 in
13:49 50.4 °F 48.2 °F 29.8 in SW 8.5 mph 10.5 mph 87% 0 in
13:54 50.5 °F 48.2 °F 29.8 in WSW 5.6 mph 10.7 mph 87% 0 in
13:59 50.7 °F 48.2 °F 29.8 in SSW 4.9 mph 10.7 mph 87% 0 in
14:04 50.7 °F 46.4 °F 29.8 in WSW 9.6 mph 10.7 mph 86% 0 in
14:09 50.5 °F 46.4 °F 29.8 in SW 6.3 mph 10.7 mph 86% 0 in
14:14 50.7 °F 46.4 °F 29.8 in WSW 5.8 mph 9.8 mph 86% 0 in
14:19 50.7 °F 46.4 °F 29.8 in WSW 6.9 mph 10.5 mph 85% 0 in
14:24 50.7 °F 46.4 °F 29.8 in WSW 9.6 mph 10.7 mph 85% 0 in
14:29 50.7 °F 46.4 °F 29.8 in WSW 7.2 mph 10.7 mph 85% 0 in
14:34 50.5 °F 46.4 °F 29.8 in WSW 7.4 mph 10.5 mph 85% 0 in
14:39 50.4 °F 46.4 °F 29.8 in WSW 6 mph 10.5 mph 85% 0 in
14:44 50.2 °F 46.4 °F 29.8 in SW 6.5 mph 8.9 mph 85% 0 in
14:49 50.2 °F 46.4 °F 29.8 in WSW 4.9 mph 8.7 mph 85% 0 in
14:54 50.2 °F 46.4 °F 29.8 in SW 5.4 mph 8.7 mph 85% 0 in
14:59 50 °F 46.4 °F 29.8 in SSW 3.8 mph 7.4 mph 85% 0 in
15:05 49.8 °F 46.4 °F 29.8 in SW 6 mph 9.6 mph 85% 0 in
15:10 49.8 °F 46.4 °F 29.8 in WSW 7.2 mph 9.6 mph 85% 0 in
15:15 49.6 °F 46.4 °F 29.8 in WSW 7.4 mph 9.8 mph 85% 0 in
15:20 49.6 °F 46.4 °F 29.8 in WSW 7.4 mph 11 mph 85% 0 in
15:25 49.5 °F 46.4 °F 29.8 in SSW 5.8 mph 11 mph 85% 0 in
15:30 49.5 °F 46.4 °F 29.8 in SW 6.5 mph 7.6 mph 85% 0 in
15:35 49.3 °F 46.4 °F 29.8 in SW 4.9 mph 8.1 mph 85% 0 in
15:40 49.3 °F 46.4 °F 29.8 in SW 4.9 mph 8.1 mph 85% 0 in
15:45 49.3 °F 46.4 °F 29.8 in South 5.4 mph 7.4 mph 85% 0 in
15:51 49.1 °F 46.4 °F 29.8 in SW 6 mph 7.2 mph 86% 0 in
15:56 48.9 °F 44.6 °F 29.8 in SSW 4.9 mph 7.2 mph 86% 0 in
16:01 48.9 °F 44.6 °F 29.8 in WSW 6.5 mph 7.6 mph 86% 0 in
16:06 48.9 °F 44.6 °F 29.8 in WSW 5.8 mph 7.8 mph 86% 0 in
16:11 48.9 °F 44.6 °F 29.8 in WSW 3.6 mph 7.8 mph 86% 0 in
16:16 48.7 °F 44.6 °F 29.8 in Calm   6.5 mph 86% 0 in
16:21 48.7 °F 44.6 °F 29.8 in SW 3.8 mph 6.5 mph 86% 0 in
16:26 48.7 °F 44.6 °F 29.8 in SW 1.3 mph 6.3 mph 86% 0 in
16:31 48.7 °F 44.6 °F 29.8 in Calm   6.3 mph 86% 0 in
16:36 48.7 °F 44.6 °F 29.8 in SSW 5.6 mph 7.8 mph 86% 0 in
16:41 48.6 °F 44.6 °F 29.8 in WSW 5.6 mph 7.8 mph 86% 0 in
16:46 48.6 °F 44.6 °F 29.8 in SW 5.6 mph 8.1 mph 86% 0 in
16:51 48.4 °F 44.6 °F 29.8 in SW 8.1 mph 8.1 mph 86% 0 in
16:56 48.2 °F 44.6 °F 29.8 in SW 5.8 mph 8.1 mph 86% 0 in
17:01 48.2 °F 44.6 °F 29.8 in SW 5.4 mph 8.1 mph 86% 0 in
17:06 48 °F 44.6 °F 29.8 in SW 2.9 mph 6.7 mph 87% 0 in
17:11 47.8 °F 44.6 °F 29.8 in SW 3.6 mph 6.3 mph 87% 0 in
17:16 47.7 °F 44.6 °F 29.8 in Calm   6.7 mph 87% 0 in
17:21 47.7 °F 44.6 °F 29.8 in WSW 4.9 mph 6.7 mph 88% 0 in
17:26 47.5 °F 44.6 °F 29.8 in Calm   6 mph 88% 0 in
17:31 47.5 °F 44.6 °F 29.8 in SSW 4 mph 6 mph 89% 0 in
17:36 47.5 °F 44.6 °F 29.8 in Calm   6 mph 89% 0 in
17:41 47.5 °F 44.6 °F 29.8 in Calm   6 mph 89% 0 in
17:46 47.3 °F 44.6 °F 29.8 in Calm   6 mph 90% 0 in
17:51 47.3 °F 44.6 °F 29.8 in Calm   4.3 mph 90% 0 in
17:56 47.1 °F 44.6 °F 29.8 in Calm     90% 0 in
18:01 46.9 °F 44.6 °F 29.8 in Calm   0.9 mph 90% 0 in
18:06 46.8 °F 44.6 °F 29.8 in Calm   1.6 mph 90% 0 in
18:11 46.6 °F 44.6 °F 29.8 in Calm   1.6 mph 90% 0 in
18:16 46.2 °F 44.6 °F 29.8 in Calm     91% 0 in
18:21 46 °F 42.8 °F 29.8 in Calm     91% 0 in
18:26 45.9 °F 42.8 °F 29.8 in Calm     91% 0 in
18:31 45.7 °F 42.8 °F 29.9 in Calm     91% 0 in
18:37 45.5 °F 42.8 °F 29.9 in Calm   2.2 mph 92% 0 in
18:42 45.5 °F 42.8 °F 29.9 in Calm   2.2 mph 92% 0 in
18:47 45.5 °F 44.6 °F 29.9 in Calm     93% 0 in
18:52 45.5 °F 44.6 °F 29.9 in Calm     93% 0 in
18:57 45.3 °F 42.8 °F 29.9 in Calm     93% 0 in
19:02 45.3 °F 42.8 °F 29.9 in Calm     94% 0 in
19:07 45.3 °F 42.8 °F 29.9 in Calm   3.4 mph 94% 0 in
19:12 45.3 °F 42.8 °F 29.9 in Calm   3.4 mph 94% 0 in
19:17 45.3 °F 44.6 °F 29.9 in Calm   1.1 mph 95% 0 in
19:22 45.3 °F 44.6 °F 29.9 in Calm     95% 0 in
19:27 45.1 °F 44.6 °F 29.9 in Calm     95% 0 in
19:32 45.1 °F 44.6 °F 29.9 in Calm     95% 0 in
19:37 45.1 °F 44.6 °F 29.9 in Calm   3.4 mph 95% 0 in
19:42 45.1 °F 44.6 °F 29.9 in Calm   3.4 mph 95% 0 in
19:47 45.1 °F 44.6 °F 29.9 in Calm     96% 0 in
19:52 45.1 °F 44.6 °F 29.9 in Calm     96% 0 in
19:57 45.1 °F 44.6 °F 29.9 in Calm   1.6 mph 96% 0 in
20:02 45 °F 44.6 °F 29.9 in Calm   4.7 mph 96% 0 in
20:07 45 °F 44.6 °F 29.9 in Calm   4.7 mph 96% 0 in
20:12 45 °F 44.6 °F 29.9 in SSW 2.7 mph 4 mph 96% 0 in
20:17 45 °F 44.6 °F 29.9 in SSW 2.9 mph 4.9 mph 96% 0 in
20:22 45 °F 44.6 °F 29.9 in SSW 1.3 mph 4.9 mph 96% 0 in
20:27 45.1 °F 44.6 °F 29.9 in SW 3.1 mph 4.9 mph 97% 0 in
20:32 45.1 °F 44.6 °F 29.9 in Calm   4.9 mph 97% 0 in
20:37 45.1 °F 44.6 °F 29.9 in Calm   4.9 mph 97% 0 in
20:42 45.1 °F 44.6 °F 29.9 in Calm   4.7 mph 96% 0 in
20:47 45 °F 44.6 °F 29.9 in Calm   4.7 mph 96% 0 in
20:52 44.8 °F 44.6 °F 29.9 in Calm   4.7 mph 96% 0 in
20:57 44.8 °F 44.6 °F 29.9 in South 4.9 mph 5.4 mph 96% 0 in
21:02 44.6 °F 44.6 °F 29.9 in Calm   5.4 mph 96% 0 in
21:08 44.6 °F 44.6 °F 29.9 in Calm   6.3 mph 96% 0 in
21:13 44.4 °F 44.6 °F 29.9 in South 3.6 mph 6.3 mph 97% 0 in
21:18 44.2 °F 42.8 °F 29.9 in South 1.1 mph 5.4 mph 97% 0 in
21:23 44.1 °F 42.8 °F 29.9 in Calm   3.6 mph 97% 0 in
21:28 44.1 °F 42.8 °F 29.9 in SSW 2 mph 4.7 mph 97% 0 in
21:33 43.9 °F 42.8 °F 29.9 in Calm   4.7 mph 97% 0 in
21:37 43.7 °F 42.8 °F 29.9 in Calm   3.8 mph 97% 0 in
21:43 43.7 °F 42.8 °F 29.9 in Calm   3.8 mph 97% 0 in
21:48 43.7 °F 42.8 °F 29.9 in SSW 4 mph 5.6 mph 97% 0 in
21:53 43.7 °F 44.6 °F 29.9 in SSW 4 mph 6 mph 98% 0 in
21:58 43.9 °F 44.6 °F 29.9 in SSW 3.8 mph 6.7 mph 98% 0 in
22:03 43.7 °F 44.6 °F 29.8 in SSW 4 mph 6.7 mph 98% 0 in
22:08 43.9 °F 44.6 °F 29.8 in SW 4.7 mph 6 mph 98% 0 in
22:13 43.7 °F 44.6 °F 29.8 in SW 4.9 mph 6 mph 98% 0 in
22:18 43.7 °F 44.6 °F 29.9 in SSW 3.6 mph 5.4 mph 98% 0 in
22:23 43.7 °F 44.6 °F 29.9 in Calm   4.9 mph 98% 0 in
22:28 43.7 °F 44.6 °F 29.9 in SW 3.6 mph 4 mph 98% 0 in
22:33 43.7 °F 44.6 °F 29.9 in Calm   4 mph 98% 0 in
22:38 43.7 °F 44.6 °F 29.9 in SSW 4.7 mph 4.7 mph 98% 0 in
22:43 43.7 °F 44.6 °F 29.9 in SSW 4.3 mph 6.3 mph 98% 0 in
22:48 43.5 °F 42.8 °F 29.9 in South 3.4 mph 6.3 mph 98% 0 in
22:53 43.5 °F 42.8 °F 29.9 in Calm   4.3 mph 98% 0 in
22:58 43.3 °F 42.8 °F 29.9 in Calm   4 mph 98% 0 in
23:03 43.3 °F 42.8 °F 29.9 in SSW 2 mph 2.7 mph 98% 0 in
23:08 43.2 °F 42.8 °F 29.9 in Calm   3.6 mph 98% 0 in
23:13 43 °F 42.8 °F 29.9 in Calm   3.6 mph 98% 0 in
23:18 43 °F 42.8 °F 29.9 in Calm   3.6 mph 98% 0 in
23:23 43 °F 42.8 °F 29.9 in SSW 1.6 mph 3.8 mph 98% 0 in
23:28 43 °F 42.8 °F 29.9 in Calm   3.8 mph 98% 0 in
23:33 43 °F 42.8 °F 29.9 in Calm   3.4 mph 98% 0 in
23:38 42.8 °F 42.8 °F 29.9 in SSW 2.2 mph 3.4 mph 98% 0 in
23:43 42.8 °F 42.8 °F 29.9 in Calm   4 mph 98% 0 in
23:48 42.6 °F 42.8 °F 29.9 in Calm   4 mph 98% 0 in
23:53 42.6 °F 42.8 °F 29.9 in SSW 2.2 mph 4 mph 98% 0 in
23:59 42.4 °F 42.8 °F 29.9 in SW 3.8 mph 5.8 mph 98% 0 in
Données Historique de Météo Turbie

Mise a jour : 22/05/2018 21:48:14
Généré par Cumulus 1.9.4 (1099)